EW6223 Weather Reports


time (UTC)temp
F
wind
direction
speed
knots
gust
knots
rain 1hr
in
rain 24hr
in
rain mn
in
humidity
%
barometer
mb
20260506211542 83 172 1.7 3.5 0.00 0.00 0.00 55 1003.9
20260506210043 85 223 1.7 3.5 0.00 0.00 0.00 52 1004.9
20260506204541 85 226 1.7 3.5 0.00 0.00 0.00 52 1006.5
20260506203039 85 227 1.7 3.5 0.00 0.00 0.00 53 1005.2
20260506201511 85 177 1.7 4.3 0.00 0.00 0.00 54 998.0
20260506200027 85 210 2.6 4.3 0.00 0.00 0.00 55 1002.8
20260506194507 86 271 0.9 4.3 0.00 0.00 0.00 58 1000.0
20260506193007 84 123 0.9 3.5 0.00 0.00 0.00 60 1000.9
20260506191506 85 188 1.7 3.5 0.00 0.00 0.00 59 1003.4
20260506190006 85 172 1.7 4.3 0.00 0.00 0.00 59 1003.7
20260506184627 86 196 0.9 4.3 0.00 0.00 0.00 60 1000.6
20260506183035 84 225 1.7 6.1 0.00 0.00 0.00 63 1003.7
20260506181530 83 217 0.9 5.2 0.00 0.00 0.00 67 1006.4
20260506180026 82 183 0.9 3.5 0.00 0.00 0.00 68 1007.1
20260506174524 82 235 0.9 3.5 0.00 0.00 0.00 68 1001.8
20260506173024 82 199 0.9 4.3 0.00 0.00 0.00 67 1000.3
20260506171525 83 189 0.9 3.5 0.00 0.00 0.00 65 1005.5
20260506170019 83 151 0.9 3.5 0.00 0.00 0.00 66 1001.2
20260506164517 83 110 1.7 2.6 0.00 0.00 0.00 65 999.4
20260506163013 82 221 0.0 3.5 0.00 0.00 0.00 66 1001.4
20260506161510 82 167 0.9 3.5 0.00 0.00 0.00 67 1006.9
20260506160039 81 193 0.9 3.5 0.00 0.00 0.00 67 1005.8
20260506154537 80 177 0.9 3.5 0.00 0.00 0.00 68 1007.0
20260506153102 80 128 0.9 2.6 0.00 0.00 0.00 67 1005.5
20260506151556 80 139 0.0 2.6 0.00 0.00 0.00 67 1006.8
20260506150051 80 154 0.9 2.6 0.00 0.00 0.00 65 1006.7
20260506144549 80 196 0.0 2.6 0.00 0.00 0.00 62 1006.6
20260506143045 78 254 0.0 0.0 0.00 0.00 0.00 63 1005.4
20260506141559 77 254 0.0 2.6 0.00 0.00 0.00 63 1005.2
20260506140040 76 217 0.9 2.6 0.00 0.00 0.00 65 1006.1
20260506134532 75 52 0.0 0.0 0.00 0.00 0.00 71 1006.0
20260506133027 0 0.0 0.0 0.00 0.00 0.00 1005.9
20260506131525 0 0.0 0.0 0.00 0.00 0.00 1005.6
20260506130050 0 0.0 0.0 0.00 0.00 0.00 1005.6
20260506124546 0 0.0 0.0 0.00 0.00 0.00 1005.5
20260506123043 74 278 0.0 1.7 0.00 0.00 0.00 62 1005.4
20260506121543 74 278 0.0 1.7 0.00 0.00 0.00 62 1005.0
20260506120105 74 278 0.0 0.0 0.00 0.00 0.00 60 1004.8
20260506114541 74 278 0.0 0.0 0.00 0.00 0.00 62 1004.7
20260506113036 73 278 0.0 0.0 0.00 0.00 0.00 62 1004.5
20260506111539 74 278 1.7 3.5 0.00 0.00 0.00 61 1004.6
20260506110035 74 278 1.7 5.2 0.00 0.00 0.00 62 1004.5
20260506104534 74 307 0.9 5.2 0.00 0.00 0.00 64 1004.5
20260506103035 75 319 0.9 2.6 0.00 0.00 0.00 64 1004.5
20260506101532 76 324 0.0 3.5 0.00 0.00 0.00 64 1004.2
20260506100034 76 327 1.7 3.5 0.00 0.00 0.00 62 1004.5
20260506094535 76 325 0.9 4.3 0.00 0.00 0.00 58 1004.6
20260506093042 76 321 1.7 4.3 0.00 0.00 0.00 54 1004.6
20260506091528 76 316 1.7 3.5 0.00 0.00 0.00 54 1004.7
20260506090026 76 314 0.9 4.3 0.00 0.00 0.00 57 1004.6
20260506084525 75 275 0.9 4.3 0.00 0.00 0.00 59 1004.1
20260506083022 74 275 0.0 2.6 0.00 0.00 0.00 61 1004.1
20260506081521 73 275 0.0 1.7 0.00 0.00 0.00 64 1003.6
20260506073014 74 274 1.7 4.3 0.00 0.00 0.00 67 1004.5
20260506071512 75 274 0.0 0.0 0.00 0.00 0.00 68 1005.0
20260506061506 76 275 0.0 0.0 0.00 0.00 0.00 66 1004.1
20260506044501 76 273 0.0 1.7 0.00 0.00 0.00 67 1003.4
20260506043100 76 273 0.9 2.6 0.00 0.00 0.00 66 1001.4
20260506041559 76 273 1.7 5.2 0.00 0.00 0.00 66 984.7
20260506040100 75 263 0.9 2.6 0.00 0.00 0.00 65 989.0
20260506034555 75 256 2.6 5.2 0.00 0.00 0.00 66 1004.8
20260506033055 75 250 0.9 3.5 0.00 0.00 0.00 67 1004.8
20260506031600 76 167 0.0 0.0 0.00 0.00 0.00 70 1004.8
20260506030110 76 167 0.0 2.6 0.00 0.00 0.00 70 1000.2
20260506024551 77 167 0.0 0.9 0.00 0.00 0.00 69 993.6
20260506023051 77 167 0.0 1.7 0.00 0.00 0.00 68 989.5
20260506021549 77 158 0.0 2.6 0.00 0.00 0.00 67 989.8
20260506020048 78 155 0.0 1.7 0.00 0.00 0.00 65 989.8
20260506014553 79 155 0.0 1.7 0.00 0.00 0.00 64 989.8
20260506013050 79 122 0.0 2.6 0.00 0.00 0.00 63 993.6
20260506011552 80 115 0.9 3.5 0.00 0.00 0.00 62 993.6
20260506010045 80 88 0.9 2.6 0.00 0.00 0.00 59 993.6
20260506004620 80 121 0.9 2.6 0.00 0.00 0.00 59 992.6
20260506003044 81 91 1.7 2.6 0.00 0.00 0.00 58 984.3
20260506001515 82 118 1.7 3.5 0.00 0.00 0.00 53 979.3
20260506000012 83 93 1.7 3.5 0.00 0.00 0.00 50 995.9
20260505234520 84 87 1.7 3.5 0.00 0.00 0.00 52 995.9
20260505233016 84 148 0.9 4.3 0.00 0.00 0.00 51 988.9
20260505231512 84 116 1.7 3.5 0.00 0.00 0.00 48 988.9
20260505230012 85 80 1.7 3.5 0.00 0.00 0.00 46 996.2
20260505224507 87 132 1.7 3.5 0.00 0.00 0.00 41 997.8
20260505223010 89 155 0.0 3.5 0.00 0.00 0.00 39 999.2
20260505221505 89 205 1.7 3.5 0.00 0.00 0.00 39 1004.3
20260505220009 88 213 1.7 3.5 0.00 0.00 0.00 39 1002.9
20260505214503 88 191 1.7 4.3 0.00 0.00 0.00 40 1003.2
20260505213002 88 218 1.7 5.2 0.00 0.00 0.00 40 1003.2